Regional Weather Roundup
Issued by NWS

Home | Current Version | Previous Version | Text Only | Print | Product List | Glossary On
Versions: 1 2 3 4 5 6 7 8 9 10 11 12 13 14 15 16 17 18 19 20 21 22 23 24 25 26 27 28 29 30 31 32 33 34 35 36 37 38 39 40 41 42 43 44 45 46 47 48 49 50
000
ASHW40 PHFO 252213
RWRHI

WEATHER ROUNDUP FOR HAWAII
NATIONAL WEATHER SERVICE HONOLULU HI
1200 PM HST WED APR 25 2018

THIS IS AN AUTOMATED REPORT THAT HAS NOT BEEN QUALITY CONTROLLED.

NOTE..."FAIR" INDICATES FEW OR NO CLOUDS BELOW 12,000 FEET WITH NO
SIGNIFICANT WEATHER AND/OR OBSTRUCTIONS TO VISIBILITY.

* - THESE SITES REPORT LIMITED FIELDS
# - BUOY DATA PROVIDED BY PACIFIC ISLANDS OCEAN OBSERVING SYSTEM.

HIZ001>004-252300-
KAUAI-NIIHAU-

CITY           SKY/WX    TMP DP  RH WIND       PRES   REMARKS
LIHUE APT      MOSUNNY   80  67  64 NE16      30.14F
PORT ALLEN*      N/A     81 N/A N/A NE26G35     N/A
POIPU*           N/A     79 N/A N/A NE9G22      N/A
PRINCEVILLE*     N/A     77 N/A N/A E12G20      N/A
KOKOLE POINT*  NOT AVBL
MOLOAA DAIRY*    N/A     79  66  65 E8G17       N/A
WAIMEA HTS*    NOT AVBL
PUU OPAE*      NOT AVBL
PUU LUA*       NOT AVBL
MAKAHA RIDGE*  NOT AVBL
$$

HIZ005>011-252300-
OAHU-

CITY           SKY/WX    TMP DP  RH WIND       PRES   REMARKS
HONOLULU       MOSUNNY   84  62  47 NE17G24   30.09F
KALAELOA       MOSUNNY   82  63  52 NE10G20   30.10F
KANEOHE MCB    MOSUNNY   80  68  66 NE14      30.09F
WHEELER FIELD  PTSUNNY   78  64  61 E12       30.11F
BELLOWS*       NOT AVBL
KAHUKU*        NOT AVBL
WHEELER*       NOT AVBL
WAIANAE HARBOR NOT AVBL
DILLINGHAM*    NOT AVBL
KAHUKU TRN*      N/A     79  66  65 W12G26      N/A
KAWAILOA*        N/A     72  63  73 NE14G25     N/A
KII*             N/A     79  66  65 NE17G26     N/A
MAKUA RANGE*     N/A     72  54  53 E12G22      N/A
OAHU FOREST NW NOT AVBL
SCHOFIELD BRK*   N/A     75  61  60 NE10        N/A
SCHOFIELD S*   NOT AVBL
WAIANAE VLY*   NOT AVBL
KUAOKALA*      NOT AVBL
HONOULIUULI*   NOT AVBL
MOKUOLOE IS*   NOT AVBL
PALEHUA*       NOT AVBL
WAIAWA PHB*    NOT AVBL
$$

HIZ012>013-252300-
MOLOKAI-

CITY           SKY/WX    TMP DP  RH WIND       PRES   REMARKS
MOLOKAI AIRPT  MOSUNNY   80  66  62 NE20G31   30.09F
KALAUPAPA      NOT AVBL
MAKAPULAPAI*   NOT AVBL
MOLOKAI 1*     NOT AVBL
PUU ALII*      NOT AVBL
$$

HIZ016-252300-
KAHOOLAWE-

CITY           SKY/WX    TMP DP  RH WIND       PRES   REMARKS
KAHOOLAWE*     NOT AVBL
HAKIOAWA*      NOT AVBL
HONOKANAIA*    NOT AVBL
KANELOA*         N/A     77  64  65 E21G31    30.15S
KEALIALALO*    NOT AVBL
LUA MAKIKA*    NOT AVBL
$$

HIZ014>015-252300-
LANAI-

CITY           SKY/WX    TMP DP  RH WIND       PRES   REMARKS
LANAI CITY     CLOUDY    75  64  68 S9        30.12F
LANAI 1*       NOT AVBL
$$

HIZ017>028-252300-
MAUI-

CITY           SKY/WX    TMP DP  RH WIND       PRES   REMARKS
KAHULUI        MOSUNNY   82  65  56 NE21G29   30.08F
KAPALUA-W MAUI LGT RAIN  77  66  69 NE13      30.10
HANA AIRPORT   NOT AVBL
HANA*            N/A     77 N/A N/A NE6         N/A
HALEAKALA SUMM   N/A     50  43  76 N6          N/A
MAALAEA BAY*   NOT AVBL
HALEAKALA*     NOT AVBL
KAUPO GAP*     NOT AVBL
KULA 1*          N/A     58  54  86 NW5         N/A
$$

HIZ023>026-252300-
BIG ISLAND OF HAWAII COAST AND LOWER SLOPES-

CITY           SKY/WX    TMP DP  RH WIND       PRES   REMARKS
KAILUA KONA    CLOUDY    81  67  62 SW10      30.03F
HILO           MOSUNNY   80  68  66 N7        30.09F
HONOKAA*         N/A     73 N/A N/A VRB1        N/A
KAWAIHAE MWT*    N/A     82 N/A N/A W13         N/A
KAWAIHAE*      NOT AVBL
SOUTH POINT*     N/A     75 N/A N/A N20G28      N/A
UPOLU AIRPORT* NOT AVBL
KAMUELA*       PTCLDY    75  61  60 NE20      30.14F
HAKALAU*         N/A     59  53  79 E6G12       N/A
KALOKO-HONOKO* NOT AVBL
PALI 2*          N/A     77  54  44 N18G30      N/A
KEALAKOMO*       N/A     84  63  48 NE15G48     N/A
KAUPULEHU*     NOT AVBL
KAPAPALA*        N/A     80  64  58 E10G18      N/A
LOWER KAHUKU*  NOT AVBL
PUHE CS*       NOT AVBL
PUHO CS*       NOT AVBL
PTA KEAMUKU*     N/A     72  57  60 NE22G30     N/A
WAIKOLOA*      NOT AVBL
$$

HIZ027>028-252300-
BIG ISLAND OF HAWAII INTERIOR AND SUMMMITS-

CITY           SKY/WX    TMP DP  RH WIND       PRES   REMARKS
BRADSHAW FIELD PTSUNNY   64  48  55 W5        30.34F
MK VISITOR CEN   N/A     50  43  76 S6          N/A
MAUNA KEA*       N/A     43  30  61 NE8         N/A
MAUNA LOA*       N/A    N/A N/A N/A MISG        N/A
MAUNA LOA 1*   NOT AVBL
PTA KIPUKA*      N/A     48  34  57 SE6G17      N/A
PTA RANGE 17*    N/A     66  52  59 E12G17      N/A
PTA WEST*        N/A     72  55  56 NW9G18      N/A
NENE CABIN*    NOT AVBL
AHUMOA*        NOT AVBL
PTA PORTABLE*  NOT AVBL
PUU MALI*        N/A     61  48  63 NE23G31     N/A
$$

HIC003-252300-
NORTHWEST ISLANDS-

CITY           SKY/WX    TMP DP  RH WIND       PRES   REMARKS
MIDWAY ISLAND  MOSUNNY   75  66  73 E14       30.36S
MIDWAY NOS*    NOT AVBL
FRENCH FRIGATE NOT AVBL
$$

PHZ110>124-180-252300-
BUOY REPORTS

STATION/POSITION TIME  TEMP    WIND        PRES    WAVE   SWELL
                       AIR SEA DIR/SP/G            HT/PER HT/DIR
                 (UTC) (F)     (DEG/KT/KT) (MB)    (FT/S) (FT/D)
BUOY 51001       2150   81 81   70/ 19/ 23 1013.7F  10/11   5
BUOY 51101       2150   72 74   60/ 17/ 21 1022.7F   9/ 8   3
BUOY 51100       NOT AVBL
BUOY 51002       2150   78 78   70/ 21/ 25 1016.3F  10/ 9   5/ 80
BUOY 51003       2150   77 78   60/ 16/ 19 1017.4F   9/ 8   7/ 80
BUOY 51004       2150   78 78   80/ 16/ 19   N/A     8/ 9   5/110
WAIMEA BAY#      NOT AVBL
MOKAPU POINT#    2134      76                N/A     8/ 8   2/ 20
LANAI#           NOT AVBL
BARBERS PT 2#    NOT AVBL
PAUWELA#         2130      75                N/A     7/ 8   2/330
HILO#            2157      78                N/A     8/ 8   2/ 20
KANEOHE BAY#     NOT AVBL
KANEOHE BAY 2#   NOT AVBL
HANALEI#         2152      77                N/A     7/ 9   2/330
KAHULUI HARBOR   2142   75 77   40/ 15/ 19 1018.7F
HONOLULU HARBOR  2148   78 77   40/  8/ 17 1018.7F
PEARL HARBOR#    2130      77                N/A     3/15   2/170
KILO NALU        NOT AVBL
HILO HARBOR      2142   77 76   20/  8/ 10 1018.7F
MOKUOLOE         2136   76 77   60/ 15/ 18 1020.0F
NAWILIWILI       2142   76 77   50/ 12/ 17 1020.5F
WHOTS BUOY       NOT AVBL
BUOY 51028       NOT AVBL
$$

......................KEY........................................
  SKY/WX - SKY CONDITIONS/PRESENT WEATHER
  TMP    - TEMPERATURE IN FAHRENHEIT
  DWPT   - DEWPOINT IN FAHRENHEIT
  RH     - RELATIVE HUMIDITY IN PERCENT
  WIND   - DIRECTION AND SPEED /MPH FOR ISLANDS...KTS FOR BUOYS/
  PRES   - MEAN SEA LEVEL PRESSURE IN INCHES OF HG
  VSB    - VISIBILITY IN MILES
  HX     - HEAT INDEX
  WCI    - WIND CHILL INDEX
  VRB    - VARIABLE WIND DIRECTION
  N/A    - NOT AVAILABLE



USA.gov is the U.S. government's official web portal to all federal, state and local government web resources and services.